Theta_e
322 321 322 323 322 321 325 326 324 323 321 321 321 322 323 327 328 334 338 342 343 343 343 343 342 342 341 336 330 330 334 338 340 341 340 339 337 335 331 329 328 330 331 332 334 334 335 334 331
322 321 324 318 324 327 325 322 324 321 320 319 321 321 322 340 336 340 341 344 342 342 343 342 342 340 337 332 331 329 334 336 337 340 340 339 335 332 329 328 328 329 329 330 331 331 331 329 328
320 324 321 322 323 326 325 323 322 321 319 321 322 321 325 335 336 340 342 345 342 343 342 341 340 337 335 334 333 338 337 338 338 339 338 336 334 332 331 329 329 329 330 330 330 329 324 323 323
324 321 317 322 325 323 322 321 320 320 320 321 322 323 329 334 337 339 343 344 343 343 340 340 338 336 334 333 334 337 333 334 335 334 333 334 333 333 333 330 329 330 332 332 331 326 324 325 327
323 316 321 323 321 319 318 320 320 320 320 321 322 323 333 336 337 341 345 345 343 342 339 340 338 336 334 333 334 336 334 334 334 334 333 333 333 333 334 329 328 331 333 333 333 330 330 330 329
320 316 322 324 322 320 318 317 318 319 319 321 322 320 331 336 338 345 347 346 344 342 338 339 339 337 335 334 332 335 333 335 335 334 334 334 334 334 335 329 329 331 332 333 333 333 332 330 328
320 317 322 321 321 321 320 317 318 318 318 320 318 321 331 333 337 344 347 346 345 341 338 339 338 338 335 335 330 332 333 335 335 335 335 335 334 334 335 332 333 330 332 333 333 332 329 326 322
318 319 322 319 320 320 318 319 318 317 318 318 318 329 338 334 337 338 346 345 345 343 339 339 339 339 337 335 333 329 332 333 331 332 331 330 330 335 334 332 333 327 330 331 329 328 324 319 315
317 322 324 324 322 321 319 322 319 318 320 319 319 324 332 337 337 336 344 345 344 344 341 340 340 340 338 335 334 329 330 332 330 330 330 330 334 336 334 332 331 326 327 329 329 325 320 319 316
319 321 324 321 321 322 319 322 322 319 319 320 320 326 336 337 337 335 341 344 344 343 342 342 341 340 339 337 335 331 329 331 331 330 330 329 335 335 333 331 330 323 327 329 327 318 317 316 313
319 322 322 323 322 320 320 320 321 321 321 319 319 329 328 331 334 335 336 344 345 344 343 342 341 341 339 338 336 334 329 328 329 329 329 329 328 331 330 332 328 324 328 325 318 316 314 309 307
321 319 320 321 320 320 320 321 322 320 320 318 319 318 319 323 323 330 335 337 343 345 345 343 342 341 340 339 337 334 330 327 325 328 329 328 329 331 330 331 326 326 326 322 320 315 310 306 306
318 319 319 319 319 318 317 319 320 320 318 317 316 318 318 317 318 327 333 337 337 341 344 344 343 341 341 340 338 336 332 328 323 322 325 326 327 329 330 328 324 329 326 321 317 311 308 306 305
318 317 318 319 319 319 320 319 318 318 316 316 316 316 315 317 318 320 321 327 332 337 339 344 344 342 341 340 339 337 335 331 324 323 326 325 329 327 329 327 329 328 325 318 314 311 307 305 303
320 321 320 319 320 320 319 321 319 317 316 316 315 315 316 314 317 317 320 321 322 324 336 340 343 343 342 340 339 338 337 336 331 327 331 330 328 326 324 327 329 321 316 315 313 309 305 303 302
321 320 323 319 319 318 319 321 318 316 316 317 316 315 314 316 314 318 319 320 321 321 325 337 340 342 343 341 340 339 338 337 335 333 333 332 328 327 327 328 327 318 316 314 311 306 304 302 301
318 320 321 320 317 319 319 321 318 317 315 314 313 313 314 315 314 316 319 320 320 321 321 326 338 340 341 341 341 339 338 337 337 335 334 333 329 328 327 326 320 318 316 313 307 304 303 302 301
319 320 317 318 316 315 315 319 317 315 315 314 312 311 311 313 315 316 317 318 319 320 320 320 329 340 340 340 340 339 338 337 337 336 334 333 331 328 328 325 321 318 315 310 304 304 303 301 300
318 318 318 315 315 314 314 313 313 312 310 310 311 310 310 311 312 315 317 317 317 318 319 318 321 336 340 340 339 339 338 338 337 335 335 333 332 329 328 324 320 318 315 310 304 304 303 300 300
319 318 317 314 314 314 313 313 312 312 312 312 313 313 311 310 309 310 314 316 317 318 318 318 317 324 339 340 338 339 339 338 337 337 335 333 332 330 327 327 323 318 311 304 304 305 303 300 298
316 316 316 316 313 311 310 312 310 310 310 310 312 312 311 311 311 309 308 313 315 315 317 317 318 320 334 340 339 337 337 336 336 335 335 333 332 330 326 327 325 316 310 306 306 306 305 301 298
317 312 314 314 313 314 310 314 309 309 309 308 308 307 308 309 307 309 308 309 312 314 315 316 316 317 332 339 338 336 335 333 335 335 334 332 330 330 327 325 320 315 308 305 306 306 305 304 299
315 312 312 311 310 309 310 311 308 306 308 307 306 305 306 306 306 307 306 309 312 312 312 313 314 315 321 337 338 337 334 333 334 333 328 327 325 327 325 320 317 310 306 305 305 305 304 303 301
312 310 309 309 307 305 307 310 307 306 309 308 307 306 307 306 305 304 307 309 310 312 313 313 311 313 317 329 336 336 333 332 330 326 323 320 320 318 318 316 313 308 305 305 303 303 302 301 300
309 308 305 304 303 308 308 310 308 306 306 307 306 305 303 302 305 304 307 310 313 314 315 315 315 315 315 320 334 334 334 333 331 328 320 316 314 310 309 312 308 305 304 303 302 301 300 299 298
311 309 306 310 310 311 309 312 309 307 306 305 304 304 303 303 301 301 305 308 312 314 315 314 313 314 315 317 329 333 333 329 328 326 321 317 312 308 307 305 306 303 302 301 300 299 298 297 296
311 308 308 308 308 302 307 306 305 306 306 306 305 304 305 305 305 302 302 309 311 312 313 312 313 314 315 316 326 330 330 325 324 321 318 312 309 306 305 305 303 302 299 299 298 298 297 295 294
309 308 307 300 302 310 309 308 309 307 308 307 306 305 305 305 306 305 306 308 311 312 313 312 312 314 315 316 326 327 324 324 321 319 314 310 308 305 304 303 303 300 298 297 297 296 295 295 293
311 308 309 306 306 308 313 310 305 307 308 307 306 305 306 308 308 305 306 307 310 312 311 311 311 315 317 319 328 325 320 319 318 315 312 309 305 303 301 302 301 298 299 297 295 295 293 293 292
309 310 308 306 304 305 306 311 307 306 308 307 309 310 310 310 311 308 307 307 307 310 311 312 313 314 318 322 325 319 316 315 311 310 309 306 302 300 300 300 299 298 296 297 296 294 292 292 291
Wind_Speed
9 10 11 4 3 4 3 6 3 7 4 3 4 6 3 1 2 3 3 15 24 30 26 22 22 21 20 19 18 17 17 17 16 16 17 16 15 13 11 11 11 11 11 11 11 10 10 9 8
10 6 2 2 4 1 5 4 7 8 5 4 3 4 3 1 2 6 14 19 27 30 27 24 23 22 20 19 17 17 17 16 16 17 17 18 15 13 12 12 12 11 11 11 9 9 8 7 6
7 1 3 3 3 6 5 3 1 5 6 1 2 3 4 3 1 15 7 27 28 31 28 26 24 22 20 18 17 19 19 18 18 19 18 16 15 13 13 12 12 12 12 11 10 9 9 8 8
2 3 4 3 8 7 7 3 4 8 7 2 2 4 2 2 6 11 25 29 29 30 28 26 24 22 20 18 19 19 18 18 18 18 17 16 16 14 12 12 12 11 10 9 10 9 10 10 9
2 2 2 3 8 6 5 4 6 9 6 2 2 2 2 5 9 18 33 30 30 30 28 26 23 20 19 18 20 20 19 19 18 17 17 17 17 15 13 11 11 10 9 8 9 11 11 10 8
2 3 3 6 5 5 8 5 2 5 7 2 2 5 1 4 23 28 29 29 28 31 29 27 23 20 19 18 20 21 21 19 18 18 17 16 15 14 13 11 10 9 9 9 9 9 8 7 7
5 4 5 5 5 6 11 5 4 8 8 7 6 4 1 2 22 26 28 27 27 28 30 28 24 21 19 18 19 22 22 20 20 19 17 16 16 15 13 11 10 9 9 8 8 8 7 6 8
4 4 4 6 6 7 6 1 4 6 11 2 5 6 4 7 22 23 26 28 28 30 30 29 27 23 21 20 19 21 23 20 20 17 16 14 15 20 15 13 10 9 9 9 7 7 7 8 7
4 3 5 6 8 5 2 2 5 4 3 1 1 7 7 22 22 23 24 24 27 29 31 30 29 26 23 21 20 21 23 22 20 18 15 13 16 21 17 14 11 9 9 8 7 6 6 5 5
4 4 7 5 4 2 5 1 3 6 4 2 3 3 17 21 25 21 20 20 23 25 30 31 31 27 25 23 23 22 23 23 22 20 18 16 18 18 16 13 11 10 9 8 7 6 4 3 3
4 5 7 5 6 2 4 8 2 2 4 3 3 6 6 4 11 19 22 30 34 34 31 32 31 29 29 26 25 23 23 24 24 23 20 18 18 18 17 15 13 12 11 10 9 7 3 2 2
3 6 7 3 5 2 2 3 2 5 7 4 0 4 4 5 6 9 21 28 32 33 34 34 33 32 31 28 28 26 25 25 26 26 23 22 21 19 18 16 14 13 12 11 10 7 5 4 1
3 3 5 6 8 4 5 6 7 7 9 9 4 6 7 6 9 20 18 24 31 31 36 37 36 35 34 32 30 28 27 26 26 25 24 23 22 22 20 17 16 15 14 12 11 9 6 4 2
2 7 5 3 4 4 5 6 5 4 7 9 8 8 9 8 10 7 13 21 21 30 33 37 39 38 37 36 34 32 27 25 26 26 25 25 22 22 24 19 18 17 15 14 11 9 6 4 3
3 3 3 4 4 4 3 14 8 11 10 9 10 10 10 10 15 15 20 19 17 20 36 39 39 41 41 40 37 34 29 25 27 28 27 26 25 22 22 23 21 18 18 15 11 8 6 4 3
5 4 1 4 4 6 9 16 3 10 7 11 12 11 10 15 15 24 25 26 27 19 19 33 41 41 43 41 40 36 32 27 28 29 29 30 28 23 23 24 25 22 18 14 11 9 6 4 3
4 2 4 7 8 6 10 3 14 15 9 9 10 10 12 14 13 23 33 31 30 29 25 23 32 42 45 43 40 37 33 28 31 32 33 32 31 25 26 28 27 22 18 14 11 10 7 4 3
6 3 3 5 4 3 6 10 11 7 7 9 10 10 10 11 18 21 23 30 34 34 29 25 32 36 44 40 39 38 33 29 31 34 36 34 33 30 30 29 26 21 18 15 13 11 8 4 4
4 2 3 4 6 5 8 6 10 10 7 10 12 12 12 14 14 21 23 21 24 30 38 31 29 40 39 37 34 35 36 34 33 35 36 31 32 33 32 29 25 22 20 18 15 13 9 5 6
2 2 5 6 3 4 7 16 14 14 15 15 19 18 16 12 8 9 21 24 21 21 20 30 29 38 43 40 38 29 36 39 39 35 35 33 32 36 34 30 27 24 22 20 18 15 11 5 4
2 3 2 4 6 1 7 11 8 6 8 13 18 20 16 17 16 12 11 22 25 23 21 20 20 31 41 39 38 34 29 27 31 33 36 35 35 37 35 32 30 27 25 24 20 16 12 9 5
2 2 3 3 4 4 5 7 6 8 10 7 8 7 11 12 9 12 9 16 26 29 27 25 23 21 36 39 37 37 33 23 34 40 40 37 38 39 37 35 32 30 27 24 21 17 14 11 9
3 5 4 2 3 4 3 2 8 5 8 8 9 9 9 10 9 9 9 19 29 28 28 26 25 21 28 40 40 42 32 36 36 41 38 39 40 40 38 35 32 30 28 24 22 20 16 12 11
6 5 6 4 2 2 5 5 5 3 4 5 5 6 6 7 8 8 13 10 9 5 4 7 14 22 22 38 41 42 32 36 35 37 37 37 39 37 37 36 33 31 29 27 22 18 15 13 11
6 6 3 4 2 6 2 2 8 8 10 4 8 10 10 8 5 6 8 8 8 7 4 1 4 8 13 26 38 40 39 44 45 44 40 39 38 38 39 38 35 33 31 27 23 19 16 14 11
3 6 4 4 3 4 1 6 6 7 7 4 4 4 7 9 8 9 9 9 14 13 9 5 7 13 14 16 34 38 42 43 43 44 42 41 39 41 40 37 34 33 29 26 22 18 15 12 10
4 2 3 2 2 3 4 7 9 3 1 6 8 7 8 8 9 12 10 12 14 12 9 5 8 11 17 18 27 37 41 40 41 41 39 36 35 36 38 37 35 32 28 25 22 19 16 11 9
4 5 3 2 1 4 5 5 7 6 2 6 6 6 7 8 10 9 7 10 11 8 6 9 11 15 16 18 29 35 40 42 41 39 37 36 35 35 39 39 34 32 28 23 21 17 14 12 9
3 1 3 3 4 3 4 6 6 5 3 6 7 7 7 10 9 9 7 14 22 15 10 11 13 15 15 15 30 34 36 39 38 36 35 36 34 36 39 38 35 33 27 24 20 15 13 11 9
4 6 5 4 3 3 2 7 6 4 2 6 17 15 12 10 13 8 10 10 16 18 17 17 18 18 16 19 30 34 35 36 33 35 35 37 36 35 37 38 36 31 28 24 17 16 14 10 9
Wind_Direction
282 299 314 6 54 70 251 259 281 316 312 220 188 114 159 124 197 202 162 163 164 158 159 162 158 154 150 152 150 149 149 150 148 149 142 139 133 125 115 111 110 110 113 119 120 112 107 105 99
280 306 42 81 105 147 256 245 259 260 223 233 126 104 88 123 152 121 130 168 161 160 161 164 162 156 152 150 150 149 145 147 150 150 146 138 133 127 121 120 118 117 115 116 117 117 121 121 114
273 346 95 142 167 206 218 223 299 308 275 208 68 78 122 192 286 159 179 165 161 162 164 164 167 161 155 152 149 143 142 141 142 142 142 142 139 135 131 129 127 125 123 118 116 116 118 118 116
162 34 28 121 229 258 211 191 348 326 279 27 132 57 12 248 184 183 162 162 165 165 166 165 170 166 160 155 150 148 144 145 149 148 148 151 149 145 141 137 135 132 129 128 124 122 119 115 111
160 62 130 198 246 264 266 246 272 284 279 260 123 186 157 357 182 167 160 164 167 167 167 168 172 170 164 158 156 155 150 150 148 152 149 152 154 154 151 146 142 139 138 135 128 126 121 115 109
90 114 118 215 226 255 277 206 249 252 263 248 111 110 208 165 148 160 168 168 168 169 171 171 174 174 171 166 164 162 156 154 154 157 158 159 166 167 163 158 151 146 143 140 138 130 121 114 102
146 121 198 205 220 259 255 148 204 241 235 230 169 103 275 235 155 168 173 172 173 169 172 175 177 178 177 175 171 171 168 164 161 162 166 170 174 176 173 167 160 157 151 145 141 139 125 112 100
137 118 189 224 202 249 247 301 279 202 232 283 163 159 180 207 166 162 175 177 174 173 176 178 179 181 181 181 180 177 175 175 173 175 172 176 185 183 185 177 174 166 156 153 143 137 129 120 103
138 120 213 215 174 227 285 16 312 303 236 223 50 154 189 164 168 147 158 166 174 180 182 182 182 184 184 184 185 184 183 185 184 185 180 174 172 180 185 183 183 174 166 160 148 150 146 144 132
158 167 220 211 200 253 303 308 313 347 305 201 41 17 142 162 172 154 161 167 175 181 188 188 187 188 187 187 188 188 190 192 193 192 188 178 176 184 186 187 184 180 170 161 161 156 143 154 159
184 201 223 260 275 118 337 312 304 269 276 320 21 179 155 153 190 175 171 177 184 189 192 195 194 195 192 192 193 192 194 196 197 198 194 191 188 189 193 191 189 183 174 168 167 161 165 168 164
204 202 217 238 266 311 267 262 275 227 238 254 359 308 291 228 230 248 183 184 188 191 196 198 200 199 198 199 199 198 199 200 200 200 199 199 195 195 196 199 196 187 178 176 181 184 182 190 222
231 257 247 248 270 252 270 239 243 214 266 285 237 217 248 263 251 225 224 203 195 195 198 203 201 202 201 202 203 202 204 204 204 202 202 204 203 205 202 201 194 186 185 186 179 185 193 217 228
251 215 246 276 247 238 258 247 207 268 234 281 293 264 212 234 249 241 236 232 225 209 204 206 205 205 203 203 204 203 205 211 208 203 200 202 206 201 198 199 189 192 191 190 191 198 208 209 186
170 167 317 246 228 249 10 274 221 237 258 267 274 271 273 219 252 247 250 249 230 226 218 209 208 207 205 205 204 203 204 208 209 205 202 205 205 206 205 201 200 190 182 195 205 202 198 193 183
143 78 311 267 264 241 164 251 256 243 244 260 267 275 267 270 218 246 257 258 256 244 231 210 206 203 207 206 204 205 202 206 212 209 207 208 204 209 203 198 189 188 193 201 200 198 191 180 170
11 172 223 304 215 228 186 244 247 249 232 243 263 265 269 266 261 236 243 249 260 257 246 232 203 204 210 212 210 204 203 208 215 215 214 209 205 203 201 190 189 193 198 197 198 190 190 171 166
195 181 240 236 312 350 278 255 274 272 227 236 252 260 260 259 256 251 243 248 248 256 255 237 223 210 212 210 215 206 204 207 214 217 210 210 206 201 199 197 198 198 199 194 187 181 163 152 152
91 134 248 266 278 311 275 269 267 271 277 269 257 250 250 251 259 264 265 259 246 248 253 254 227 220 210 210 202 201 200 204 211 212 213 220 214 203 200 198 198 200 204 198 187 170 155 113 147
270 259 271 281 256 284 290 284 267 255 254 239 251 258 250 253 258 247 250 252 252 253 253 250 241 223 215 210 210 202 198 203 212 211 215 220 218 204 199 203 202 201 197 190 185 182 162 135 132
145 178 220 252 322 321 321 276 251 281 263 256 242 244 253 249 251 249 256 257 258 244 246 252 248 227 220 211 208 209 198 198 203 207 211 213 210 203 204 205 203 200 200 195 190 188 186 162 135
150 85 84 43 38 263 26 290 304 280 292 266 256 253 246 245 242 246 240 253 258 261 261 257 257 244 220 212 204 202 198 191 204 208 207 204 202 205 205 203 199 199 197 197 192 189 191 181 162
159 94 80 62 59 360 301 245 276 278 287 293 289 248 249 243 236 247 241 246 258 264 267 266 254 250 224 212 209 208 199 199 205 206 203 198 197 202 201 200 197 197 195 196 190 184 183 177 171
133 72 44 47 54 340 241 192 280 253 243 305 322 315 308 282 257 247 265 264 240 231 255 285 268 253 236 215 210 212 202 195 193 198 196 195 193 196 197 197 197 197 192 190 188 181 179 176 171
87 71 348 347 354 227 168 214 248 268 269 308 310 300 300 290 250 228 213 205 191 170 142 356 301 308 272 227 213 213 204 208 200 198 190 184 189 193 195 194 194 195 192 187 182 180 177 173 170
142 140 165 243 235 283 16 237 256 239 285 339 353 299 343 347 310 286 265 217 202 199 212 242 290 284 288 257 220 211 213 204 202 198 193 189 187 190 192 192 192 193 186 183 181 180 175 172 174
205 148 177 115 324 30 262 297 284 300 64 351 1 22 7 353 343 319 288 238 208 203 209 253 283 282 271 265 229 213 210 202 201 198 197 187 186 190 190 192 188 189 183 182 179 176 175 173 183
132 157 71 355 32 284 292 284 242 279 315 359 11 360 338 330 329 332 330 299 272 260 264 279 278 283 281 265 224 211 208 206 202 197 189 186 187 188 188 188 185 183 179 179 177 172 179 171 193
138 232 72 113 153 201 300 255 216 225 182 301 317 294 296 303 310 287 290 295 283 269 260 286 289 289 290 253 211 205 203 203 198 193 185 186 183 184 185 185 181 178 179 179 179 170 184 171 194
156 181 144 133 247 230 205 266 280 294 61 317 312 306 303 284 292 299 293 311 283 279 298 308 308 299 284 240 209 199 195 194 186 182 182 186 178 181 180 181 179 177 178 182 179 179 186 176 196